QPF
0.00 0.00 0.02 0.02 0.03 0.03 0.02 0.02 0.03 0.03 0.02 0.01 0.01 0.01 0.01 0.00 0.00 0.00 0.00 0.00 0.01 0.01 0.01 0.01 0.02 0.02 0.01 0.01 0.01 0.01 0.01 0.01 0.00 0.01 0.01 0.01 0.01 0.01 0.01 0.01 0.01 0.01 0.01
0.00 0.00 0.02 0.02 0.02 0.03 0.02 0.02 0.02 0.02 0.02 0.02 0.02 0.01 0.01 0.01 0.00 0.01 0.00 0.01 0.01 0.02 0.01 0.01 0.02 0.02 0.01 0.00 0.00 0.01 0.01 0.01 0.00 0.00 0.00 0.00 0.01 0.01 0.01 0.01 0.01 0.01 0.02
0.01 0.01 0.02 0.03 0.03 0.03 0.02 0.02 0.02 0.02 0.02 0.02 0.02 0.02 0.01 0.01 0.01 0.01 0.01 0.01 0.01 0.02 0.01 0.01 0.02 0.01 0.01 0.00 0.00 0.00 0.01 0.00 0.00 0.00 0.00 0.00 0.00 0.01 0.02 0.01 0.01 0.02 0.01
0.01 0.01 0.02 0.03 0.04 0.04 0.04 0.03 0.02 0.02 0.02 0.02 0.02 0.02 0.02 0.02 0.02 0.01 0.01 0.02 0.02 0.02 0.02 0.02 0.02 0.01 0.01 0.00 0.00 0.00 0.00 0.00 0.00 0.00 0.00 0.00 0.01 0.02 0.02 0.01 0.01 0.03 0.02
0.02 0.01 0.01 0.02 0.03 0.04 0.04 0.04 0.04 0.03 0.03 0.02 0.02 0.02 0.02 0.02 0.02 0.02 0.03 0.03 0.03 0.03 0.02 0.02 0.01 0.01 0.01 0.00 0.00 0.00 0.00 0.00 0.00 0.00 0.00 0.00 0.00 0.01 0.01 0.01 0.01 0.02 0.02
0.02 0.02 0.01 0.01 0.02 0.02 0.03 0.03 0.04 0.05 0.04 0.02 0.02 0.02 0.02 0.03 0.03 0.03 0.04 0.03 0.03 0.03 0.02 0.01 0.01 0.01 0.01 0.00 0.00 0.00 0.00 0.00 0.00 0.00 0.00 0.00 0.00 0.02 0.02 0.02 0.02 0.03 0.03
0.01 0.02 0.01 0.01 0.01 0.01 0.02 0.02 0.03 0.05 0.05 0.04 0.02 0.02 0.02 0.03 0.05 0.05 0.04 0.04 0.04 0.03 0.03 0.01 0.00 0.01 0.01 0.00 0.00 0.00 0.00 0.00 0.00 0.00 0.00 0.00 0.00 0.02 0.04 0.03 0.04 0.05 0.03
0.02 0.03 0.02 0.01 0.01 0.01 0.01 0.02 0.03 0.03 0.05 0.05 0.02 0.02 0.03 0.03 0.04 0.05 0.04 0.04 0.05 0.04 0.04 0.02 0.00 0.00 0.01 0.01 0.00 0.00 0.00 0.00 0.01 0.00 0.00 0.00 0.00 0.01 0.01 0.01 0.02 0.03 0.03
0.01 0.02 0.03 0.01 0.01 0.01 0.01 0.01 0.02 0.03 0.03 0.04 0.03 0.02 0.02 0.03 0.03 0.04 0.04 0.04 0.05 0.05 0.04 0.04 0.02 0.00 0.01 0.01 0.00 0.00 0.00 0.00 0.00 0.00 0.00 0.00 0.00 0.01 0.01 0.01 0.01 0.02 0.02
0.01 0.02 0.03 0.02 0.01 0.02 0.01 0.01 0.01 0.02 0.03 0.03 0.02 0.01 0.01 0.01 0.02 0.02 0.03 0.04 0.04 0.04 0.05 0.04 0.03 0.01 0.01 0.01 0.01 0.00 0.00 0.00 0.00 0.00 0.00 0.00 0.00 0.01 0.02 0.02 0.01 0.02 0.02
0.01 0.02 0.02 0.03 0.03 0.03 0.02 0.01 0.01 0.02 0.03 0.03 0.03 0.02 0.01 0.01 0.01 0.01 0.02 0.04 0.04 0.04 0.05 0.04 0.03 0.01 0.01 0.00 0.01 0.01 0.00 0.00 0.00 0.00 0.00 0.00 0.01 0.01 0.02 0.02 0.02 0.02 0.03
0.01 0.02 0.02 0.02 0.03 0.03 0.03 0.01 0.01 0.01 0.02 0.03 0.02 0.02 0.01 0.01 0.01 0.01 0.01 0.02 0.04 0.04 0.05 0.05 0.03 0.02 0.00 0.00 0.00 0.01 0.00 0.00 0.00 0.00 0.00 0.01 0.01 0.02 0.03 0.03 0.02 0.02 0.03
0.01 0.02 0.02 0.02 0.03 0.04 0.04 0.03 0.02 0.01 0.01 0.03 0.02 0.02 0.01 0.01 0.01 0.01 0.01 0.01 0.03 0.04 0.04 0.03 0.02 0.01 0.00 0.00 0.00 0.00 0.00 0.01 0.01 0.01 0.01 0.01 0.02 0.03 0.04 0.03 0.02 0.02 0.03
0.01 0.01 0.02 0.03 0.04 0.04 0.05 0.04 0.03 0.02 0.01 0.02 0.04 0.03 0.03 0.02 0.01 0.02 0.01 0.01 0.01 0.02 0.03 0.02 0.01 0.01 0.00 0.00 0.00 0.00 0.01 0.01 0.01 0.01 0.01 0.01 0.01 0.03 0.04 0.04 0.03 0.02 0.03
0.01 0.01 0.01 0.02 0.04 0.04 0.07 0.05 0.04 0.03 0.02 0.02 0.03 0.03 0.03 0.03 0.02 0.02 0.02 0.01 0.01 0.01 0.02 0.03 0.02 0.01 0.00 0.00 0.00 0.00 0.01 0.01 0.01 0.01 0.01 0.01 0.01 0.02 0.03 0.04 0.03 0.03 0.03
0.01 0.01 0.02 0.02 0.03 0.05 0.07 0.07 0.05 0.03 0.03 0.03 0.03 0.03 0.03 0.03 0.03 0.03 0.02 0.02 0.01 0.01 0.02 0.03 0.03 0.02 0.01 0.00 0.00 0.00 0.02 0.03 0.02 0.01 0.01 0.01 0.01 0.01 0.02 0.03 0.04 0.05 0.05
0.00 0.01 0.01 0.02 0.03 0.04 0.06 0.07 0.07 0.05 0.03 0.03 0.03 0.03 0.03 0.02 0.02 0.02 0.03 0.02 0.01 0.02 0.03 0.04 0.04 0.04 0.03 0.01 0.01 0.00 0.02 0.03 0.02 0.01 0.01 0.02 0.02 0.01 0.02 0.03 0.04 0.05 0.06
0.00 0.00 0.01 0.01 0.02 0.04 0.04 0.06 0.07 0.06 0.04 0.03 0.03 0.04 0.03 0.01 0.01 0.02 0.03 0.03 0.02 0.02 0.02 0.03 0.05 0.05 0.03 0.02 0.01 0.01 0.01 0.02 0.02 0.02 0.01 0.02 0.02 0.02 0.02 0.02 0.04 0.05 0.05
0.00 0.00 0.00 0.00 0.01 0.02 0.03 0.04 0.05 0.05 0.05 0.04 0.03 0.04 0.06 0.03 0.01 0.02 0.04 0.04 0.03 0.02 0.02 0.03 0.03 0.04 0.04 0.03 0.02 0.02 0.02 0.02 0.03 0.03 0.02 0.02 0.02 0.02 0.02 0.01 0.02 0.03 0.05
0.00 0.00 0.00 0.00 0.01 0.02 0.04 0.04 0.04 0.05 0.05 0.05 0.05 0.04 0.07 0.06 0.03 0.02 0.03 0.05 0.06 0.04 0.03 0.03 0.03 0.04 0.04 0.04 0.04 0.03 0.03 0.03 0.04 0.04 0.03 0.03 0.03 0.02 0.02 0.01 0.01 0.02 0.05
0.00 0.00 0.00 0.00 0.00 0.01 0.02 0.03 0.03 0.05 0.07 0.06 0.06 0.06 0.06 0.06 0.05 0.04 0.05 0.06 0.07 0.07 0.05 0.03 0.04 0.04 0.04 0.04 0.04 0.04 0.04 0.03 0.04 0.04 0.03 0.03 0.02 0.02 0.02 0.02 0.02 0.03 0.04
0.00 0.00 0.00 0.00 0.00 0.00 0.01 0.03 0.03 0.04 0.07 0.08 0.07 0.07 0.06 0.05 0.05 0.05 0.06 0.05 0.06 0.08 0.08 0.05 0.05 0.04 0.03 0.03 0.04 0.03 0.03 0.03 0.02 0.02 0.02 0.03 0.03 0.03 0.03 0.03 0.03 0.03 0.04
0.00 0.00 0.00 0.00 0.00 0.00 0.01 0.02 0.03 0.03 0.06 0.08 0.07 0.06 0.05 0.05 0.05 0.06 0.07 0.08 0.08 0.08 0.09 0.08 0.06 0.05 0.04 0.04 0.04 0.04 0.03 0.03 0.02 0.02 0.02 0.03 0.03 0.03 0.03 0.03 0.03 0.02 0.02
0.00 0.00 0.00 0.00 0.00 0.01 0.01 0.01 0.01 0.02 0.03 0.06 0.07 0.05 0.04 0.04 0.04 0.05 0.05 0.06 0.07 0.09 0.09 0.08 0.08 0.07 0.07 0.06 0.05 0.05 0.05 0.05 0.05 0.05 0.04 0.05 0.05 0.04 0.04 0.03 0.03 0.02 0.02
0.00 0.00 0.00 0.00 0.00 0.00 0.01 0.01 0.01 0.01 0.02 0.04 0.06 0.06 0.04 0.03 0.04 0.04 0.05 0.05 0.05 0.06 0.08 0.09 0.08 0.08 0.08 0.09 0.08 0.06 0.05 0.05 0.05 0.05 0.06 0.07 0.08 0.08 0.06 0.05 0.05 0.04 0.04
0.00 0.00 0.00 0.01 0.01 0.01 0.01 0.01 0.01 0.01 0.02 0.03 0.05 0.06 0.06 0.04 0.03 0.03 0.04 0.05 0.06 0.07 0.06 0.07 0.09 0.09 0.09 0.09 0.09 0.08 0.07 0.06 0.04 0.03 0.04 0.05 0.08 0.10 0.08 0.07 0.06 0.06 0.05
MSLP
1012.58 1012.44 1012.42 1012.52 1012.70 1012.94 1013.18 1013.42 1013.62 1013.80 1013.98 1014.18 1014.43 1014.72 1015.07 1015.45 1015.83 1016.18 1016.48 1016.73 1016.92 1017.07 1017.21 1017.36 1017.52 1017.71 1017.91 1018.12 1018.31 1018.46 1018.58 1018.67 1018.74 1018.79 1018.84 1018.88 1018.91 1018.93 1018.93 1018.91 1018.87 1018.83 1018.78
1012.49 1012.36 1012.35 1012.45 1012.65 1012.90 1013.18 1013.45 1013.70 1013.92 1014.15 1014.38 1014.65 1014.96 1015.31 1015.68 1016.06 1016.41 1016.72 1016.97 1017.18 1017.35 1017.50 1017.65 1017.80 1017.97 1018.14 1018.30 1018.45 1018.58 1018.68 1018.77 1018.85 1018.91 1018.98 1019.03 1019.07 1019.09 1019.08 1019.06 1019.02 1018.98 1018.95
1012.30 1012.19 1012.20 1012.32 1012.54 1012.83 1013.16 1013.48 1013.79 1014.07 1014.33 1014.59 1014.87 1015.17 1015.51 1015.86 1016.21 1016.55 1016.85 1017.11 1017.33 1017.52 1017.70 1017.86 1018.02 1018.18 1018.33 1018.47 1018.59 1018.70 1018.80 1018.89 1018.98 1019.06 1019.14 1019.20 1019.24 1019.26 1019.24 1019.21 1019.17 1019.14 1019.13
1012.08 1012.00 1012.03 1012.19 1012.45 1012.78 1013.16 1013.54 1013.90 1014.22 1014.52 1014.79 1015.06 1015.34 1015.64 1015.95 1016.27 1016.58 1016.87 1017.14 1017.39 1017.61 1017.81 1018.01 1018.19 1018.36 1018.51 1018.64 1018.76 1018.86 1018.96 1019.06 1019.16 1019.26 1019.35 1019.41 1019.45 1019.45 1019.42 1019.37 1019.33 1019.32 1019.34
1011.91 1011.86 1011.93 1012.11 1012.41 1012.79 1013.20 1013.62 1014.01 1014.35 1014.65 1014.92 1015.18 1015.43 1015.69 1015.97 1016.25 1016.54 1016.83 1017.11 1017.38 1017.64 1017.89 1018.13 1018.34 1018.54 1018.70 1018.85 1018.97 1019.08 1019.19 1019.30 1019.41 1019.52 1019.60 1019.66 1019.68 1019.67 1019.62 1019.56 1019.52 1019.52 1019.56
1011.84 1011.83 1011.92 1012.14 1012.46 1012.85 1013.28 1013.70 1014.09 1014.43 1014.72 1014.98 1015.22 1015.45 1015.68 1015.94 1016.20 1016.49 1016.78 1017.08 1017.38 1017.68 1017.98 1018.25 1018.51 1018.73 1018.92 1019.08 1019.22 1019.35 1019.47 1019.59 1019.72 1019.82 1019.91 1019.96 1019.96 1019.92 1019.85 1019.79 1019.74 1019.75 1019.81
1011.89 1011.91 1012.03 1012.26 1012.59 1012.97 1013.37 1013.76 1014.12 1014.44 1014.71 1014.95 1015.18 1015.41 1015.65 1015.91 1016.18 1016.48 1016.79 1017.11 1017.44 1017.78 1018.10 1018.41 1018.69 1018.94 1019.16 1019.34 1019.50 1019.64 1019.78 1019.92 1020.05 1020.16 1020.24 1020.27 1020.26 1020.20 1020.12 1020.04 1020.00 1020.01 1020.09
1012.05 1012.09 1012.23 1012.46 1012.76 1013.10 1013.45 1013.79 1014.10 1014.37 1014.62 1014.85 1015.09 1015.35 1015.62 1015.91 1016.23 1016.56 1016.90 1017.25 1017.59 1017.94 1018.28 1018.60 1018.90 1019.16 1019.39 1019.59 1019.76 1019.92 1020.08 1020.23 1020.37 1020.49 1020.56 1020.59 1020.57 1020.50 1020.41 1020.33 1020.29 1020.31 1020.39
1012.25 1012.31 1012.45 1012.67 1012.93 1013.22 1013.50 1013.76 1014.01 1014.24 1014.47 1014.71 1014.98 1015.29 1015.63 1015.99 1016.36 1016.74 1017.11 1017.47 1017.83 1018.17 1018.50 1018.81 1019.10 1019.36 1019.59 1019.80 1019.99 1020.17 1020.34 1020.51 1020.66 1020.78 1020.87 1020.90 1020.88 1020.81 1020.73 1020.65 1020.61 1020.63 1020.72
1012.42 1012.49 1012.63 1012.83 1013.05 1013.28 1013.49 1013.68 1013.87 1014.06 1014.28 1014.55 1014.88 1015.25 1015.67 1016.11 1016.55 1016.98 1017.38 1017.75 1018.10 1018.42 1018.72 1019.00 1019.27 1019.52 1019.75 1019.97 1020.17 1020.36 1020.56 1020.74 1020.91 1021.05 1021.15 1021.20 1021.19 1021.14 1021.07 1021.00 1020.97 1020.99 1021.07
1012.48 1012.56 1012.70 1012.88 1013.07 1013.25 1013.41 1013.55 1013.69 1013.87 1014.09 1014.40 1014.78 1015.23 1015.73 1016.25 1016.76 1017.23 1017.66 1018.03 1018.36 1018.65 1018.92 1019.18 1019.42 1019.66 1019.89 1020.11 1020.33 1020.54 1020.75 1020.95 1021.14 1021.30 1021.41 1021.48 1021.49 1021.47 1021.42 1021.37 1021.35 1021.37 1021.45
1012.35 1012.44 1012.59 1012.78 1012.96 1013.11 1013.24 1013.36 1013.48 1013.66 1013.90 1014.25 1014.69 1015.21 1015.78 1016.36 1016.92 1017.43 1017.88 1018.25 1018.56 1018.83 1019.08 1019.32 1019.55 1019.79 1020.03 1020.27 1020.51 1020.74 1020.97 1021.18 1021.38 1021.55 1021.68 1021.76 1021.80 1021.80 1021.78 1021.75 1021.75 1021.78 1021.85
1011.99 1012.10 1012.28 1012.48 1012.68 1012.85 1012.98 1013.10 1013.24 1013.43 1013.70 1014.08 1014.57 1015.15 1015.77 1016.40 1017.00 1017.54 1017.99 1018.37 1018.69 1018.96 1019.21 1019.45 1019.70 1019.96 1020.22 1020.49 1020.76 1021.01 1021.25 1021.47 1021.67 1021.84 1021.97 1022.07 1022.12 1022.14 1022.14 1022.14 1022.15 1022.19 1022.26
1011.39 1011.54 1011.76 1012.00 1012.23 1012.43 1012.61 1012.76 1012.93 1013.16 1013.46 1013.88 1014.40 1015.00 1015.66 1016.32 1016.94 1017.51 1017.99 1018.39 1018.73 1019.03 1019.32 1019.59 1019.89 1020.19 1020.51 1020.81 1021.11 1021.39 1021.64 1021.86 1022.05 1022.20 1022.33 1022.41 1022.47 1022.50 1022.52 1022.53 1022.56 1022.61 1022.68
1010.59 1010.78 1011.03 1011.33 1011.61 1011.88 1012.11 1012.32 1012.54 1012.81 1013.15 1013.59 1014.13 1014.75 1015.42 1016.09 1016.75 1017.34 1017.86 1018.31 1018.71 1019.07 1019.42 1019.77 1020.14 1020.51 1020.88 1021.24 1021.57 1021.87 1022.13 1022.34 1022.52 1022.65 1022.75 1022.82 1022.86 1022.89 1022.91 1022.94 1022.97 1023.03 1023.10
1009.65 1009.87 1010.16 1010.50 1010.85 1011.18 1011.48 1011.76 1012.04 1012.36 1012.74 1013.20 1013.75 1014.37 1015.04 1015.73 1016.41 1017.04 1017.63 1018.15 1018.64 1019.09 1019.53 1019.98 1020.43 1020.88 1021.32 1021.74 1022.11 1022.44 1022.71 1022.91 1023.07 1023.18 1023.25 1023.29 1023.32 1023.33 1023.35 1023.37 1023.40 1023.46 1023.53
1008.67 1008.90 1009.22 1009.59 1009.98 1010.37 1010.74 1011.09 1011.44 1011.80 1012.22 1012.70 1013.25 1013.87 1014.55 1015.25 1015.96 1016.65 1017.31 1017.93 1018.52 1019.08 1019.63 1020.18 1020.72 1021.25 1021.76 1022.24 1022.66 1023.01 1023.30 1023.51 1023.67 1023.76 1023.81 1023.84 1023.84 1023.84 1023.84 1023.85 1023.87 1023.91 1023.97
1007.72 1007.95 1008.26 1008.65 1009.07 1009.50 1009.92 1010.33 1010.74 1011.15 1011.60 1012.09 1012.65 1013.27 1013.96 1014.68 1015.44 1016.19 1016.93 1017.65 1018.35 1019.02 1019.67 1020.31 1020.93 1021.54 1022.11 1022.64 1023.11 1023.51 1023.83 1024.08 1024.25 1024.36 1024.42 1024.44 1024.44 1024.42 1024.40 1024.39 1024.39 1024.41 1024.45
1006.87 1007.08 1007.37 1007.74 1008.16 1008.61 1009.08 1009.54 1009.99 1010.45 1010.92 1011.43 1011.99 1012.62 1013.32 1014.07 1014.87 1015.69 1016.51 1017.32 1018.11 1018.87 1019.61 1020.32 1021.00 1021.66 1022.28 1022.86 1023.38 1023.84 1024.23 1024.54 1024.78 1024.94 1025.04 1025.08 1025.09 1025.08 1025.05 1025.02 1024.99 1024.98 1024.97
1006.17 1006.33 1006.58 1006.91 1007.32 1007.77 1008.26 1008.75 1009.25 1009.74 1010.24 1010.76 1011.33 1011.97 1012.67 1013.45 1014.29 1015.16 1016.05 1016.94 1017.80 1018.63 1019.41 1020.16 1020.88 1021.56 1022.21 1022.84 1023.42 1023.96 1024.44 1024.85 1025.18 1025.44 1025.61 1025.72 1025.78 1025.78 1025.76 1025.71 1025.66 1025.61 1025.56
1005.60 1005.72 1005.91 1006.19 1006.57 1007.01 1007.51 1008.03 1008.55 1009.07 1009.60 1010.14 1010.71 1011.35 1012.07 1012.86 1013.72 1014.64 1015.57 1016.51 1017.41 1018.27 1019.07 1019.83 1020.54 1021.23 1021.91 1022.57 1023.21 1023.84 1024.42 1024.96 1025.42 1025.81 1026.10 1026.31 1026.44 1026.49 1026.49 1026.45 1026.38 1026.29 1026.19
1005.14 1005.20 1005.33 1005.57 1005.91 1006.34 1006.84 1007.38 1007.94 1008.49 1009.03 1009.59 1010.17 1010.81 1011.52 1012.32 1013.20 1014.13 1015.09 1016.04 1016.96 1017.82 1018.62 1019.35 1020.05 1020.73 1021.40 1022.09 1022.79 1023.50 1024.20 1024.87 1025.48 1026.01 1026.45 1026.78 1027.01 1027.14 1027.19 1027.17 1027.10 1026.99 1026.86
1004.72 1004.73 1004.81 1005.00 1005.32 1005.74 1006.26 1006.83 1007.42 1008.00 1008.57 1009.13 1009.72 1010.35 1011.06 1011.85 1012.72 1013.66 1014.63 1015.58 1016.49 1017.34 1018.11 1018.82 1019.48 1020.13 1020.79 1021.49 1022.23 1023.01 1023.81 1024.60 1025.35 1026.03 1026.61 1027.07 1027.42 1027.65 1027.77 1027.80 1027.76 1027.66 1027.51
1004.29 1004.26 1004.30 1004.45 1004.75 1005.19 1005.72 1006.33 1006.96 1007.57 1008.17 1008.75 1009.34 1009.97 1010.67 1011.45 1012.32 1013.25 1014.21 1015.16 1016.07 1016.89 1017.64 1018.32 1018.94 1019.56 1020.20 1020.89 1021.64 1022.46 1023.32 1024.20 1025.06 1025.86 1026.56 1027.15 1027.62 1027.95 1028.17 1028.28 1028.30 1028.23 1028.11
1003.81 1003.74 1003.74 1003.88 1004.18 1004.63 1005.20 1005.85 1006.52 1007.17 1007.80 1008.40 1009.00 1009.64 1010.33 1011.11 1011.97 1012.90 1013.87 1014.82 1015.73 1016.55 1017.28 1017.94 1018.54 1019.12 1019.73 1020.40 1021.14 1021.95 1022.83 1023.75 1024.66 1025.53 1026.32 1027.01 1027.58 1028.03 1028.36 1028.57 1028.67 1028.68 1028.60
1003.28 1003.17 1003.15 1003.28 1003.58 1004.06 1004.66 1005.35 1006.06 1006.76 1007.43 1008.05 1008.67 1009.31 1010.01 1010.80 1011.67 1012.62 1013.60 1014.58 1015.50 1016.35 1017.10 1017.76 1018.35 1018.91 1019.48 1020.11 1020.80 1021.58 1022.42 1023.31 1024.22 1025.11 1025.94 1026.70 1027.36 1027.91 1028.34 1028.67 1028.88 1028.97 1028.97
Thickness
5726 5728 5728 5728 5728 5727 5728 5728 5728 5728 5728 5728 5728 5727 5727 5727 5727 5727 5727 5727 5727 5727 5727 5727 5727 5726 5726 5726 5726 5726 5725 5725 5725 5724 5724 5724 5724 5723 5722 5722 5721 5721 5720
5727 5726 5726 5725 5725 5724 5724 5724 5724 5725 5725 5725 5725 5725 5725 5725 5724 5724 5725 5725 5725 5725 5725 5724 5724 5723 5723 5723 5722 5722 5722 5722 5721 5721 5721 5721 5721 5721 5720 5719 5719 5718 5717
5724 5723 5723 5722 5722 5721 5721 5721 5721 5721 5721 5721 5722 5722 5722 5722 5722 5722 5722 5722 5722 5722 5722 5721 5721 5720 5720 5719 5719 5719 5719 5719 5718 5718 5718 5718 5718 5718 5717 5716 5716 5715 5714
5720 5719 5719 5718 5718 5717 5717 5717 5717 5717 5718 5718 5718 5718 5719 5719 5719 5719 5719 5719 5719 5719 5718 5718 5718 5717 5717 5716 5716 5716 5716 5715 5715 5715 5715 5715 5716 5715 5715 5714 5713 5713 5712
5715 5714 5714 5714 5714 5714 5714 5713 5713 5714 5714 5714 5715 5715 5715 5716 5716 5716 5716 5716 5716 5715 5715 5715 5714 5714 5713 5713 5713 5713 5712 5712 5712 5712 5712 5712 5712 5713 5712 5711 5711 5710 5709
5710 5710 5710 5710 5710 5710 5710 5710 5710 5710 5710 5710 5711 5712 5712 5712 5713 5713 5713 5713 5712 5712 5712 5711 5711 5710 5710 5710 5710 5710 5709 5709 5709 5709 5709 5709 5709 5709 5709 5708 5708 5707 5706
5704 5704 5705 5705 5705 5705 5705 5706 5706 5706 5707 5707 5707 5708 5709 5709 5709 5709 5709 5709 5709 5709 5709 5708 5708 5707 5707 5707 5706 5706 5706 5705 5706 5705 5705 5705 5706 5706 5706 5705 5705 5704 5703
5698 5699 5700 5700 5700 5701 5701 5701 5702 5702 5703 5703 5703 5704 5705 5705 5706 5706 5706 5706 5706 5705 5705 5705 5704 5704 5703 5703 5703 5703 5702 5702 5702 5702 5702 5702 5702 5703 5702 5702 5701 5700 5699
5692 5693 5694 5694 5695 5695 5696 5697 5697 5698 5698 5699 5699 5700 5700 5701 5702 5702 5702 5702 5702 5702 5702 5701 5701 5700 5700 5699 5699 5699 5699 5699 5698 5698 5698 5699 5699 5699 5699 5698 5697 5697 5696
5685 5686 5688 5689 5690 5690 5691 5692 5693 5693 5694 5694 5695 5695 5696 5696 5697 5698 5698 5698 5698 5698 5698 5698 5697 5697 5696 5696 5696 5695 5695 5694 5694 5695 5695 5695 5695 5695 5695 5694 5693 5693 5692
5678 5679 5682 5683 5684 5685 5686 5687 5687 5688 5689 5689 5690 5690 5691 5692 5692 5693 5693 5694 5694 5694 5694 5694 5693 5693 5692 5692 5691 5691 5690 5690 5690 5690 5691 5691 5691 5691 5691 5690 5690 5689 5688
5672 5673 5675 5677 5678 5679 5680 5681 5682 5683 5683 5684 5685 5685 5686 5687 5687 5688 5688 5689 5689 5689 5690 5690 5689 5688 5688 5687 5687 5687 5686 5686 5686 5686 5687 5687 5687 5687 5687 5686 5686 5685 5684
5666 5668 5669 5671 5672 5673 5674 5675 5675 5677 5678 5679 5679 5680 5680 5681 5681 5682 5683 5683 5684 5684 5684 5685 5684 5684 5683 5683 5682 5681 5681 5681 5681 5682 5682 5683 5683 5683 5683 5682 5682 5681 5680
5660 5662 5663 5665 5666 5667 5668 5669 5669 5671 5672 5672 5674 5674 5674 5675 5675 5676 5677 5678 5679 5679 5679 5679 5679 5678 5678 5677 5677 5676 5676 5676 5676 5677 5678 5678 5679 5679 5679 5678 5677 5677 5676
5654 5656 5657 5659 5660 5661 5661 5662 5663 5664 5666 5667 5667 5668 5668 5669 5669 5670 5671 5671 5673 5674 5674 5673 5673 5672 5672 5671 5671 5671 5671 5671 5671 5672 5673 5673 5674 5674 5674 5674 5673 5673 5672
5649 5650 5651 5653 5655 5655 5655 5656 5657 5658 5659 5660 5661 5662 5662 5663 5663 5664 5664 5666 5667 5668 5669 5668 5667 5666 5666 5666 5665 5665 5665 5666 5666 5667 5668 5668 5669 5669 5669 5669 5669 5668 5667
5644 5645 5645 5647 5648 5649 5649 5650 5651 5652 5653 5654 5654 5655 5655 5656 5657 5658 5658 5659 5661 5662 5662 5662 5661 5660 5660 5660 5660 5660 5660 5660 5661 5662 5663 5664 5664 5664 5664 5664 5664 5663 5662
5637 5638 5639 5641 5641 5642 5643 5644 5645 5645 5646 5647 5647 5648 5649 5649 5651 5652 5653 5654 5655 5656 5656 5656 5655 5654 5654 5654 5654 5654 5654 5655 5655 5656 5657 5658 5658 5658 5658 5658 5658 5657 5657
5631 5632 5632 5634 5634 5635 5636 5636 5637 5638 5638 5639 5640 5641 5642 5642 5644 5646 5647 5648 5649 5650 5650 5650 5649 5649 5647 5647 5648 5648 5648 5649 5649 5650 5651 5652 5652 5653 5653 5652 5652 5651 5651
5624 5625 5626 5627 5627 5628 5627 5627 5628 5629 5630 5631 5632 5633 5634 5635 5637 5639 5640 5641 5643 5643 5643 5643 5643 5642 5641 5641 5642 5640 5640 5641 5642 5643 5644 5645 5646 5646 5646 5646 5646 5645 5644
5616 5617 5618 5619 5620 5620 5619 5619 5620 5620 5622 5623 5624 5625 5626 5628 5630 5632 5633 5634 5636 5637 5637 5637 5636 5636 5634 5634 5633 5631 5632 5633 5635 5636 5637 5638 5639 5639 5639 5639 5638 5638 5637
5608 5609 5610 5612 5612 5613 5613 5613 5613 5613 5613 5614 5615 5616 5618 5620 5622 5625 5626 5626 5628 5629 5629 5630 5631 5629 5628 5628 5628 5625 5623 5623 5626 5629 5630 5630 5631 5631 5631 5631 5631 5631 5630
5600 5602 5604 5604 5605 5605 5605 5605 5604 5603 5603 5604 5605 5607 5609 5611 5614 5616 5618 5619 5619 5621 5622 5623 5624 5624 5622 5621 5622 5622 5619 5619 5618 5619 5621 5622 5622 5623 5623 5623 5623 5622 5622
5593 5594 5595 5596 5597 5597 5597 5597 5597 5597 5597 5597 5597 5598 5600 5603 5604 5606 5609 5610 5611 5613 5614 5615 5617 5618 5617 5615 5614 5615 5616 5618 5614 5612 5612 5614 5614 5615 5615 5615 5615 5615 5614
5585 5585 5586 5587 5588 5588 5589 5589 5589 5589 5590 5588 5588 5589 5590 5593 5595 5597 5599 5600 5602 5603 5605 5607 5608 5610 5611 5610 5609 5608 5607 5608 5609 5608 5606 5604 5605 5606 5607 5607 5607 5607 5607
5574 5575 5576 5577 5579 5579 5580 5581 5581 5581 5580 5579 5579 5579 5580 5582 5585 5587 5588 5590 5591 5594 5595 5598 5599 5601 5603 5603 5603 5603 5603 5602 5601 5601 5599 5597 5596 5597 5597 5598 5598 5598 5598